Regional Weather Roundup
Issued by NWS

Home | Current Version | Previous Version | Graphics & Text | Print | Product List | Glossary On
Versions: 1 2 3 4 5 6 7 8 9 10 11 12 13 14 15 16 17 18 19 20 21 22 23 24 25 26 27 28 29 30 31 32 33 34 35 36 37 38 39 40 41 42 43 44 45 46 47 48 49 50
000
ASUS43 KOAX 030410
RWRNE

WEATHER ROUNDUP FOR NEBRASKA
NATIONAL WEATHER SERVICE OMAHA NE
1000 PM CST MON MAR 02 2015

NOTES: SATELLITE DATA IS BEING USED TO AUGMENT CLOUD COVER ABOVE
       12000 FEET.
       "FAIR" INDICATES FEW OR NO CLOUDS BELOW 12,000 FEET WITH NO
       SIGNIFICANT WEATHER AND/OR OBSTRUCTIONS TO VISIBILITY.

  * THESE STATIONS DO NOT REPORT WEATHER SUCH AS RAIN...SNOW OR FOG.

NEZ001>004-019>022-054>056-030500-
NEBRASKA PANHANDLE

CITY           SKY/WX    TMP DP  RH WIND       PRES   REMARKS
SCOTTSBLUFF    FAIR      29  24  82 E7        29.66R WCI  22
ALLIANCE       CLOUDY    29  24  82 S12       29.62F WCI  19
CHADRON        CLOUDY    33  24  69 W5        29.65R WCI  29
KIMBALL        CLOUDY    27  27  97 CALM      29.56R FOG
SIDNEY         CLOUDY    29  26  89 SE10      29.59F FOG     WCI  20
$$

NEZ057>060-069>072-079>082-030500-
SOUTHWEST NEBRASKA

CITY           SKY/WX    TMP DP  RH WIND       PRES   REMARKS
NORTH PLATTE   CLOUDY    30  22  72 SE16G22   29.72F WCI  19
IMPERIAL         N/A     31  27  85 SE15G26   29.63F FOG     WCI  20
LEXINGTON      CLOUDY    31  21  66 S15G23    29.77F WCI  20
MCCOOK         CLOUDY    31  23  72 SE13      29.72F WCI  21
OGALLALA       CLOUDY    30  29  95 SE14G21   29.65F FOG     WCI  19
$$

NEZ005>010-023>029-035>040-094-030500-
NORTH CENTRAL NEBRASKA

CITY           SKY/WX    TMP DP  RH WIND       PRES   REMARKS
VALENTINE      FAIR      31  21  66 S9        29.72F WCI  23
AINSWORTH      CLOUDY    30  19  64 S14G20    29.73F WCI  20
BROKEN BOW     CLOUDY    30  17  58 S18G26    29.77F WCI  18
O`NEILL        FAIR      32  17  53 S13       29.82F WCI  22
ORD            CLOUDY    30  15  53 S15G26    29.80F WCI  19
THEDFORD       CLOUDY    32  25  76 S16       29.71F WCI  21
$$

NEZ041-046>049-061>064-073>077-083>087-030500-
SOUTH CENTRAL NEBRASKA

CITY           SKY/WX    TMP DP  RH WIND       PRES   REMARKS
GRAND ISLAND   FAIR      29  17  61 S13       29.87F WCI  19
AURORA         FAIR      30  18  61 S14G22    29.88F WCI  20
HASTINGS       FAIR      29  18  63 S15       29.85F WCI  18
HEBRON         FAIR      31  21  65 S10       29.93F WCI  22
HOLDREGE       CLOUDY    29  18  63 SE16G22   29.80F WCI  18
KEARNEY *      CLOUDY    28  16  59 S17       29.82F WCI  16
YORK           CLOUDY    32  19  59 S14       29.91F WCI  22
$$

NEZ011>018-030>034-042>045-030500-
NORTHEAST NEBRASKA

CITY           SKY/WX    TMP DP  RH WIND       PRES   REMARKS
NORFOLK        FAIR      32  18  56 S13       29.89F WCI  22
ALBION         FAIR      31  16  52 S16       29.86F WCI  20
BLAIR          MOCLDY    33  19  56 SE14      29.96F WCI  23
COLUMBUS *     FAIR      32  16  51 S13       29.93F WCI  22
FREMONT        FAIR      33  20  58 SE14      29.96F WCI  23
TEKAMAH        FAIR      32  21  64 SE16      29.98F WCI  21
WAYNE          FAIR      31  20  63 S10       29.92F WCI  22
$$

NEZ050>053-065>068-078-088>093-030500-
SOUTHEAST NEBRASKA

CITY           SKY/WX    TMP DP  RH WIND       PRES   REMARKS
LINCOLN        CLOUDY    33  19  56 S16G23    29.96F WCI  23
OMAHA EPPLEY   CLOUDY    33  19  56 SE21      29.99F WCI  21
BEATRICE       CLOUDY    32  22  66 S12G22    29.95F WCI  23
FALLS CITY     CLOUDY    34  19  54 SE14      30.01F WCI  25
NEBRASKA CITY  CLOUDY    32  16  52 S13       29.99F WCI  22
PLATTSMOUTH    CLOUDY    32  17  54 SE14G24   29.98F WCI  22
$$

NEZ044-045-051>053-067-030500-
OMAHA AREA

CITY           SKY/WX    TMP DP  RH WIND       PRES   REMARKS
OMAHA EPPLEY   CLOUDY    33  19  56 SE21      29.99F WCI  21
BLAIR          MOCLDY    33  19  56 SE14      29.96F WCI  23
FREMONT        FAIR      33  20  58 SE14      29.96F WCI  23
MILLARD        CLOUDY    33  19  56 SE17      29.98F WCI  22
OFFUTT AFB     CLOUDY    32  19  58 SE14      29.98F WCI  22
PLATTSMOUTH    CLOUDY    32  17  54 SE14G24   29.98F WCI  22
WAHOO          CLOUDY    32  19  58 SE13G20   29.96F WCI  22
$$



USA.gov is the U.S. government's official web portal to all federal, state and local government web resources and services.